FW0183 Weather Reports


time (UTC)temp
C
wind
direction
speed
KPH
gust
KPH
rain 1hr
cm
rain 24hr
cm
rain mn
cm
humidity
%
barometer
mb
20260503010052 3 22 3.2 9.7 0.00 0.00 0.00 60 1016.9
20260503004545 3 288 3.2 14.5 0.00 0.00 0.00 59 1016.9
20260503003038 4 33 3.2 12.9 0.00 0.00 0.00 58 1016.8
20260503001538 4 50 4.8 12.9 0.00 0.00 0.00 57 1016.6
20260503000026 5 334 4.8 12.9 0.00 0.00 0.00 56 1016.4
20260502234528 5 318 3.2 9.7 0.00 0.00 0.00 56 1016.3
20260502233015 6 315 3.2 12.9 0.00 0.00 0.00 54 1016.1
20260502231509 5 315 4.8 19.3 0.00 0.00 0.00 56 1016.1
20260502230005 6 360 3.2 12.9 0.00 0.00 0.00 55 1016.1
20260502224639 6 326 6.4 16.1 0.00 0.00 0.00 55 1016.0
20260502223033 6 17 4.8 17.7 0.00 0.00 0.00 54 1016.0
20260502221616 6 326 6.4 20.9 0.00 0.00 0.00 53 1015.8
20260502220009 6 46 4.8 14.5 0.00 0.00 0.00 52 1015.5
20260502214502 6 328 6.4 20.9 0.00 0.00 0.00 52 1015.3
20260502213057 6 42 4.8 14.5 0.00 0.00 0.00 52 1015.3
20260502211550 7 355 3.2 14.5 0.00 0.00 0.00 50 1014.9
20260502210058 7 336 4.8 14.5 0.00 0.00 0.00 54 1015.0
20260502204541 7 355 4.8 14.5 0.00 0.00 0.00 54 1014.9
20260502203031 7 42 8.0 22.5 0.00 0.00 0.00 49 1015.0
20260502201507 8 35 8.0 20.9 0.00 0.00 0.00 49 1015.0
20260502200101 7 75 4.8 16.1 0.00 0.00 0.00 51 1015.4
20260502194542 7 267 4.8 14.5 0.00 0.00 0.00 52 1015.2
20260502193036 8 59 6.4 16.1 0.00 0.00 0.00 47 1015.2
20260502191530 8 360 11.3 20.9 0.00 0.00 0.00 51 1015.0
20260502190034 8 68 3.2 25.7 0.00 0.00 0.00 49 1014.8
20260502184623 9 322 4.8 22.5 0.00 0.00 0.00 47 1014.9
20260502183116 8 5 3.2 20.9 0.00 0.00 0.00 47 1015.0
20260502181609 10 35 3.2 14.5 0.00 0.00 0.00 47 1015.1
20260502163011 10 39 9.7 20.9 0.00 0.00 0.00 47 1015.5
20260502161505 8 337 8.0 19.3 0.00 0.00 0.00 48 1015.6
20260502151622 7 28 4.8 17.7 0.00 0.00 0.00 51 1016.0
20260502123043 2 48 11.3 20.9 0.00 0.00 0.00 71 1016.0
20260502121546 2 360 17.7 22.5 0.00 0.00 0.00 71 1015.9
20260502114522 2 360 4.8 17.7 0.00 0.00 0.00 72 1015.8
20260502113015 1 360 4.8 17.7 0.00 0.00 0.00 73 1015.9
20260502110148 1 360 1.6 4.8 0.00 0.00 0.00 76 1015.5
20260502104540 1 360 0.0 3.2 0.00 0.00 0.00 74 1015.3
20260502103038 1 360 0.0 3.2 0.00 0.00 0.00 73 1015.3
20260502101535 1 360 0.0 0.0 0.00 0.00 0.00 72 1015.4
20260502070028 4 33 3.2 19.3 0.00 0.00 0.00 75 1015.6
20260502064529 5 78 1.6 6.4 0.00 0.00 0.00 78 1015.8
20260502063027 5 42 3.2 14.5 0.00 0.00 0.00 78 1016.1
20260502061516 5 42 3.2 14.5 0.00 0.00 0.00 76 1016.2
20260502060009 5 51 1.6 6.4 0.00 0.00 0.00 75 1016.4
20260502054503 5 51 0.0 6.4 0.00 0.00 0.00 75 1016.4
20260502053124 5 51 1.6 17.7 0.00 0.00 0.00 74 1016.6
20260502051604 5 57 1.6 9.7 0.00 0.00 0.00 74 1016.3
20260502050045 5 45 4.8 11.3 0.00 0.00 0.00 73 1016.2
20260502044540 6 9 4.8 9.7 0.00 0.00 0.00 72 1016.2
20260502043026 6 46 3.2 8.0 0.00 0.00 0.00 73 1016.3
20260502041527 6 35 9.7 17.7 0.00 0.00 0.00 73 1016.4
20260502040014 6 37 4.8 19.3 0.00 0.00 0.00 73 1016.5
20260502034509 6 53 0.0 8.0 0.00 0.00 0.00 72 1016.5
20260502033002 6 55 3.2 24.1 0.00 0.00 0.00 71 1016.4
20260502031557 7 36 3.2 9.7 0.00 0.00 0.00 72 1016.5
20260502030054 7 55 1.6 9.7 0.00 0.00 0.00 71 1016.6
20260502024544 7 63 1.6 11.3 0.00 0.00 0.00 72 1016.5
20260502023028 7 23 1.6 9.7 0.00 0.00 0.00 72 1016.3
20260502021527 7 18 3.2 16.1 0.00 0.00 0.00 71 1016.3
20260502020026 7 45 3.2 9.7 0.00 0.00 0.00 72 1016.0
20260502014620 8 49 3.2 14.5 0.00 0.00 0.00 71 1015.7
20260502013013 8 64 4.8 17.7 0.00 0.00 0.00 70 1015.3
20260502011507 8 42 4.8 20.9 0.00 0.00 0.00 66 1015.4